Simultaneous Nadir Overpasses (SNOs) Predictions

Prediction of SNOs between AQUA and METOP-A Satellite Orbit:

Table of predicted SNOs for the next 14.0 days since TLE Epoch: 9/30/2017
Index Date (AQUA) Time (AQUA) Lat,Lon (AQUA) SZA (AQUA ) Date (METOP-A) Time (METOP-A) Lat,Lon (METOP-A) SZA (METOP-A ) Distance(km) Time Diff (sec)
1 10/02/2017 09:32:03 -73.48,-148.14 102.88 10/02/2017 09:30:55 -73.40,-150.29 102.91 68.70 68
2 10/02/2017 10:21:41 74.00, 18.36 77.68 10/02/2017 10:21:23 74.00, 18.44 77.68 2.65 18
3 10/02/2017 11:11:07 -74.05,-174.10 102.27 10/02/2017 11:12:04 -74.03,-174.17 102.29 3.34 57
4 10/05/2017 05:06:21 -73.60, -81.95 101.68 10/05/2017 05:05:11 -73.58, -83.48 101.66 47.94 70
5 10/05/2017 05:55:56 73.97, 84.87 78.73 10/05/2017 05:55:43 73.98, 84.79 78.74 2.36 13
6 10/05/2017 06:45:23 -74.06,-107.69 101.17 10/05/2017 06:46:23 -74.05,-107.70 101.18 0.75 60
7 10/08/2017 00:40:40 -73.78, -15.91 100.41 10/08/2017 00:39:28 -73.71, -16.78 100.47 28.24 72
8 10/08/2017 01:30:12 74.00, 151.23 79.83 10/08/2017 01:30:02 74.00, 151.26 79.84 0.93 10
9 10/08/2017 02:19:39 -74.09, -41.31 100.07 10/08/2017 02:20:42 -74.08, -41.22 100.08 2.75 63
10 10/10/2017 20:14:57 -73.92, 50.22 99.20 10/10/2017 20:13:43 -73.88, 50.04 99.24 7.09 74
11 10/10/2017 21:04:26 73.99,-142.31 80.89 10/10/2017 21:04:21 73.98,-142.40 80.88 3.33 5
12 10/10/2017 21:53:53 -74.07, 25.16 99.02 10/10/2017 21:55:01 -74.05, 25.12 99.04 2.23 68
13 10/13/2017 15:49:13 -73.97, 116.55 98.10 10/13/2017 15:48:01 -73.95, 116.62 98.11 2.93 72
14 10/13/2017 16:38:41 74.00, -75.88 81.95 10/13/2017 16:38:40 74.00, -75.94 81.95 1.83 1




NCC Satellite Simultaneous Nadir Overpasses (SNOs) Prediction Service
